Weather History for Lakeview AWS, OR

Change the Weather History Date:

Monday, February 25, 2013

  Actual Average Record
Temperature  
Mean Temperature 32 °F -  
Max Temperature 42 °F 44 °F 64 °F (2014)
Min Temperature 21 °F 25 °F -8 °F (1933)
Degree Days  
Heating Degree Days 34    
Moisture  
Dew Point 20 °F    
Average Humidity 66    
Maximum Humidity 100    
Minimum Humidity 33    
Precipitation  
Precipitation 0.00 in - - ()
Sea Level Pressure  
Sea Level Pressure 30.14 in    
Wind  
Wind Speed 8 mph (West)    
Max Wind Speed 17 mph    
Max Gust Speed 29 mph    
Visibility 10 miles    
Events      
Averages and records for this station are not official NWS values.
T = Trace of Precipitation, MM = Missing Value Source: NWS Daily Summary

Daily Weather History Graph

Daily Weather History Graph

Search for Another Location

Airport:

Trip Planner

Search our weather history database for the weather conditions in past years. The results will help you decide how hot, cold, wet, or windy it might be!

Date:

Astronomy

Feb. 25, 2013 Rise Set
Actual Time 6:42 AM PST 5:47 PM PST
Civil Twilight 6:14 AM PST 6:15 PM PST
Nautical Twilight 5:41 AM PST 6:47 PM PST
Astronomical Twilight 5:09 AM PST 7:20 PM PST
Moon 6:07 PM PST (2/25) 6:14 AM PST (2/25)
Length of Visible Light 12h 01m
Length of Day
11h 04m
Full, 100% of the Moon is Illuminated
Feb 25
Full
Feb 25
Full
Mar 4
Last Quarter
Mar 11
New
Mar 19
First Quarter

Hourly Weather History & Observations

Time (PST) Temp. Windchill Dew Point Humidity Pressure Visibility Wind Dir Wind Speed Gust Speed Precip Events Conditions
12:15 AM 23.0 °F - 21.2 °F 93% 30.15 in 10.0 mi Calm Calm - N/A   Clear
12:35 AM 21.2 °F 14.9 °F 21.2 °F 100% 30.15 in 10.0 mi NW 4.6 mph - N/A   Clear
12:55 AM 21.2 °F 16.4 °F 19.4 °F 93% 30.15 in 10.0 mi NNE 3.5 mph - N/A   Clear
1:15 AM 21.2 °F 14.9 °F 19.4 °F 93% 30.14 in 10.0 mi ENE 4.6 mph - N/A   Clear
1:35 AM 21.2 °F 16.4 °F 21.2 °F 100% 30.14 in 10.0 mi SE 3.5 mph - N/A   Clear
1:55 AM 24.8 °F 17.9 °F 21.2 °F 86% 30.13 in 10.0 mi SSE 5.8 mph - N/A   Mostly Cloudy
2:15 AM 24.8 °F 16.1 °F 21.2 °F 86% 30.12 in 10.0 mi ESE 8.1 mph - N/A   Partly Cloudy
2:35 AM 24.8 °F 16.1 °F 23.0 °F 93% 30.11 in 10.0 mi SE 8.1 mph - N/A   Mostly Cloudy
2:55 AM 26.6 °F 19.1 °F 23.0 °F 86% 30.10 in 10.0 mi SE 6.9 mph - N/A   Overcast
3:15 AM 28.4 °F 17.0 °F 21.2 °F 74% 30.08 in 10.0 mi SE 15.0 mph - N/A   Scattered Clouds
3:35 AM 28.4 °F 17.5 °F 21.2 °F 74% 30.07 in 10.0 mi SSE 13.8 mph - N/A   Clear
3:55 AM 28.4 °F 21.2 °F 19.4 °F 69% 30.07 in 10.0 mi South 6.9 mph - N/A   Scattered Clouds
4:15 AM 26.6 °F - 21.2 °F 80% 30.08 in 10.0 mi Calm Calm - N/A   Clear
4:35 AM 26.6 °F 17.5 °F 21.2 °F 80% 30.09 in 10.0 mi ESE 9.2 mph - N/A   Mostly Cloudy
4:55 AM 28.4 °F 21.2 °F 21.2 °F 74% 30.09 in 10.0 mi ESE 6.9 mph - N/A   Overcast
5:15 AM 28.4 °F 22.2 °F 21.2 °F 74% 30.08 in 10.0 mi SSE 5.8 mph - N/A   Mostly Cloudy
5:35 AM 28.4 °F 18.0 °F 21.2 °F 74% 30.07 in 10.0 mi SSE 12.7 mph - N/A   Partly Cloudy
5:55 AM 28.4 °F 18.5 °F 21.2 °F 74% 30.09 in 10.0 mi South 11.5 mph - N/A   Scattered Clouds
6:15 AM 28.4 °F 18.0 °F 21.2 °F 74% 30.09 in 10.0 mi South 12.7 mph - N/A   Mostly Cloudy
6:35 AM 30.2 °F 21.3 °F 24.8 °F 80% 30.10 in 2.5 mi SSW 10.4 mph 17.3 mph N/A   Overcast
6:55 AM 28.4 °F 21.2 °F 24.8 °F 86% 30.10 in 10.0 mi South 6.9 mph - N/A   Mostly Cloudy
7:15 AM 28.4 °F 21.2 °F 23.0 °F 80% 30.10 in 10.0 mi SSE 6.9 mph - N/A   Scattered Clouds
7:35 AM 26.6 °F 16.8 °F 26.6 °F 100% 30.11 in 10.0 mi ESE 10.4 mph - N/A   Partly Cloudy
7:55 AM 26.6 °F 15.7 °F 26.6 °F 100% 30.11 in 10.0 mi ESE 12.7 mph - N/A   Partly Cloudy
8:15 AM 30.2 °F 26.7 °F 28.4 °F 93% 30.12 in 10.0 mi ESE 3.5 mph - N/A   Mostly Cloudy
8:35 AM 32.0 °F 24.8 °F 26.6 °F 80% 30.11 in 10.0 mi West 8.1 mph - N/A   Scattered Clouds
8:55 AM 35.6 °F 26.2 °F 26.6 °F 70% 30.12 in 10.0 mi West 15.0 mph 19.6 mph N/A   Clear
9:15 AM 35.6 °F 28.0 °F 26.6 °F 70% 30.14 in 10.0 mi NW 10.4 mph - N/A   Scattered Clouds
9:35 AM 37.4 °F 28.5 °F 23.0 °F 56% 30.14 in 10.0 mi WNW 15.0 mph 28.8 mph N/A   Scattered Clouds
9:55 AM 39.2 °F 31.2 °F 21.2 °F 49% 30.15 in 10.0 mi WNW 13.8 mph 18.4 mph N/A   Scattered Clouds
10:15 AM 39.2 °F 30.8 °F 21.2 °F 49% 30.15 in 10.0 mi West 15.0 mph 21.9 mph N/A   Partly Cloudy
10:35 AM 39.2 °F 32.5 °F 19.4 °F 45% 30.15 in 10.0 mi WNW 10.4 mph 16.1 mph N/A   Partly Cloudy
10:55 AM 42.8 °F 35.1 °F 19.4 °F 39% 30.15 in 10.0 mi NW 16.1 mph 19.6 mph N/A   Scattered Clouds
11:15 AM 39.2 °F 35.0 °F 17.6 °F 42% 30.15 in 10.0 mi West 5.8 mph - N/A   Mostly Cloudy
11:35 AM 39.2 °F 33.6 °F 19.4 °F 45% 30.15 in 10.0 mi WSW 8.1 mph - N/A   Mostly Cloudy
11:55 AM 39.2 °F 33.0 °F 21.2 °F 49% 30.15 in 10.0 mi West 9.2 mph - N/A   Overcast
12:15 PM 39.2 °F 33.0 °F 19.4 °F 45% 30.16 in 10.0 mi WSW 9.2 mph - N/A   Overcast
12:35 PM 41.0 °F 32.8 °F 21.2 °F 45% 30.15 in 10.0 mi WSW 16.1 mph 19.6 mph N/A   Mostly Cloudy
12:55 PM 41.0 °F 32.8 °F 19.4 °F 42% 30.15 in 10.0 mi WSW 16.1 mph 20.7 mph N/A   Scattered Clouds
1:15 PM 39.2 °F 31.6 °F 19.4 °F 45% 30.14 in 10.0 mi WSW 12.7 mph - N/A   Partly Cloudy
1:35 PM 39.2 °F 33.0 °F 15.8 °F 39% 30.14 in 10.0 mi West 9.2 mph - N/A   Scattered Clouds
1:55 PM 37.4 °F 29.3 °F 17.6 °F 45% 30.14 in 10.0 mi West 12.7 mph - N/A   Mostly Cloudy
2:15 PM 41.0 °F 32.5 °F 17.6 °F 39% 30.14 in 10.0 mi WSW 17.3 mph - N/A   Mostly Cloudy
2:35 PM 41.0 °F 32.5 °F 19.4 °F 42% 30.13 in 10.0 mi West 17.3 mph 28.8 mph N/A   Mostly Cloudy
2:55 PM 41.0 °F 32.8 °F 15.8 °F 36% 30.14 in 10.0 mi West 16.1 mph 25.3 mph N/A   Partly Cloudy
3:15 PM 39.2 °F 31.2 °F 15.8 °F 39% 30.13 in 10.0 mi West 13.8 mph - N/A   Clear
3:35 PM 39.2 °F 30.8 °F 15.8 °F 39% 30.13 in 10.0 mi West 15.0 mph 19.6 mph N/A   Scattered Clouds
3:55 PM 39.2 °F 30.5 °F 15.8 °F 39% 30.14 in 10.0 mi West 16.1 mph 20.7 mph N/A   Mostly Cloudy
4:15 PM 39.2 °F 30.8 °F 12.2 °F 33% 30.14 in 10.0 mi West 15.0 mph 20.7 mph N/A   Partly Cloudy
4:35 PM 37.4 °F 29.3 °F 14.0 °F 38% 30.14 in 10.0 mi West 12.7 mph - N/A   Clear
4:55 PM 35.6 °F 25.9 °F 14.0 °F 41% 30.13 in 10.0 mi West 16.1 mph 19.6 mph N/A   Clear
5:15 PM 33.8 °F 23.5 °F 15.8 °F 48% 30.13 in 10.0 mi West 16.1 mph - N/A   Clear
5:35 PM 32.0 °F 21.2 °F 15.8 °F 51% 30.14 in 10.0 mi West 16.1 mph - N/A   Clear
5:55 PM 32.0 °F 23.0 °F 14.0 °F 48% 30.14 in 10.0 mi West 11.5 mph 16.1 mph N/A   Clear
6:15 PM 30.2 °F 22.6 °F 15.8 °F 55% 30.15 in 10.0 mi West 8.1 mph - N/A   Clear
6:35 PM 28.4 °F 18.0 °F 15.8 °F 59% 30.16 in 10.0 mi West 12.7 mph - N/A   Clear
6:55 PM 28.4 °F 16.2 °F 17.6 °F 64% 30.16 in 10.0 mi West 17.3 mph - N/A   Clear
7:15 PM 28.4 °F 19.7 °F 15.8 °F 59% 30.18 in 10.0 mi WNW 9.2 mph - N/A   Clear
7:35 PM 28.4 °F 19.1 °F 15.8 °F 59% 30.17 in 10.0 mi West 10.4 mph 18.4 mph N/A   Clear
7:55 PM 28.4 °F 17.0 °F 17.6 °F 64% 30.17 in 10.0 mi West 15.0 mph - N/A   Clear
8:15 PM 26.6 °F 18.2 °F 17.6 °F 69% 30.18 in 10.0 mi NW 8.1 mph - N/A   Clear
8:35 PM 24.8 °F 17.9 °F 17.6 °F 74% 30.19 in 10.0 mi North 5.8 mph - N/A   Clear
8:55 PM 24.8 °F 14.6 °F 17.6 °F 74% 30.20 in 10.0 mi WNW 10.4 mph - N/A   Clear
9:15 PM 26.6 °F 17.5 °F 17.6 °F 69% 30.21 in 10.0 mi NW 9.2 mph - N/A   Clear
9:35 PM 26.6 °F 17.5 °F 17.6 °F 69% 30.21 in 10.0 mi NW 9.2 mph - N/A   Mostly Cloudy
9:55 PM 26.6 °F 19.1 °F 19.4 °F 74% 30.22 in 10.0 mi WNW 6.9 mph - N/A   Overcast
10:15 PM 26.6 °F 18.2 °F 19.4 °F 74% 30.22 in 10.0 mi West 8.1 mph - N/A   Overcast
10:35 PM 24.8 °F 16.1 °F 19.4 °F 80% 30.21 in 10.0 mi West 8.1 mph - N/A   Mostly Cloudy
10:55 PM 24.8 °F 17.9 °F 19.4 °F 80% 30.22 in 10.0 mi WNW 5.8 mph - N/A   Mostly Cloudy
11:15 PM 23.0 °F 17.0 °F 19.4 °F 86% 30.23 in 10.0 mi NNE 4.6 mph - N/A   Mostly Cloudy
11:35 PM 23.0 °F 18.4 °F 17.6 °F 80% 30.23 in 10.0 mi North 3.5 mph - N/A   Partly Cloudy
11:55 PM 21.2 °F 16.4 °F 17.6 °F 86% 30.22 in 10.0 mi NNW 3.5 mph - N/A   Clear